FW2834 Weather Reports


Display with metric or nautical units.
time (UTC)temp
F
wind
direction
speed
MPH
gust
MPH
rain 1hr
in
rain 24hr
in
rain mn
in
humidity
%
barometer
mb
20260507214602 62 332 1.0 3.0 0.00 0.02 0.00 31 1013.1
20260507214058 62 336 0.0 3.0 0.00 0.02 0.00 35 1013.2
20260507213559 62 309 1.0 4.0 0.00 0.02 0.00 36 1013.1
20260507213059 63 5 1.0 3.0 0.00 0.02 0.00 34 1013.1
20260507212559 63 46 0.0 3.0 0.00 0.02 0.00 33 1013.1
20260507212057 63 51 0.0 3.0 0.00 0.02 0.00 31 1013.1
20260507211558 63 51 1.0 4.0 0.00 0.02 0.00 28 1013.1
20260507211057 63 290 1.0 4.0 0.00 0.02 0.00 31 1013.1
20260507210600 63 86 0.0 3.0 0.00 0.02 0.00 32 1013.1
20260507210057 63 321 1.0 3.0 0.00 0.02 0.00 32 1013.1
20260507205557 63 317 0.0 4.0 0.00 0.02 0.00 31 1013.0
20260507205056 63 331 0.0 4.0 0.00 0.02 0.00 34 1013.1
20260507204559 63 338 1.0 3.0 0.00 0.02 0.00 33 1013.0
20260507204056 63 336 1.0 4.0 0.00 0.02 0.00 34 1013.1
20260507203556 63 311 2.0 5.0 0.00 0.02 0.00 32 1013.0
20260507203055 62 342 1.0 5.0 0.00 0.02 0.00 31 1013.1
20260507202557 63 315 0.0 4.0 0.00 0.02 0.00 32 1013.1
20260507202054 62 315 1.0 5.0 0.00 0.02 0.00 32 1013.1
20260507201559 63 11 2.0 5.0 0.00 0.02 0.00 33 1013.0
20260507201153 63 28 1.0 3.0 0.00 0.02 0.00 28 1013.1
20260507200552 63 336 1.0 3.0 0.00 0.02 0.00 32 1013.3
20260507200056 63 341 1.0 4.0 0.00 0.03 0.00 31 1013.3
20260507195551 63 288 1.0 4.0 0.00 0.03 0.00 32 1013.2
20260507195051 64 316 2.0 4.0 0.00 0.03 0.00 32 1013.3
20260507194550 63 180 0.0 5.0 0.00 0.03 0.00 42 1013.3
20260507194049 63 316 1.0 4.0 0.00 0.03 0.00 30 1013.3
20260507193549 63 339 1.0 4.0 0.00 0.03 0.00 33 1013.4
20260507193051 63 25 0.0 5.0 0.00 0.03 0.00 32 1013.3
20260507192546 63 335 1.0 5.0 0.00 0.03 0.00 36 1013.4
20260507192049 63 230 1.0 3.0 0.00 0.03 0.00 38 1013.4
20260507191552 63 229 1.0 5.0 0.00 0.03 0.00 34 1013.4
20260507191044 62 223 1.0 8.0 0.00 0.03 0.00 41 1013.4
20260507190544 62 66 1.0 8.0 0.00 0.03 0.00 32 1013.4
20260507190046 62 324 1.0 5.0 0.00 0.04 0.00 34 1013.5
20260507185543 62 338 1.0 4.0 0.00 0.04 0.00 34 1013.5
20260507185043 62 360 1.0 5.0 0.00 0.04 0.00 32 1013.6
20260507184545 62 286 1.0 5.0 0.00 0.04 0.00 31 1013.6
20260507184043 63 338 1.0 4.0 0.00 0.04 0.00 34 1013.5
20260507183541 62 274 2.0 4.0 0.00 0.04 0.00 32 1013.5
20260507183043 63 36 1.0 4.0 0.00 0.04 0.00 33 1013.7
20260507182541 63 315 1.0 7.0 0.00 0.04 0.00 34 1013.7
20260507182041 63 292 3.0 7.0 0.00 0.04 0.00 32 1013.6
20260507181540 63 233 1.0 3.0 0.00 0.04 0.00 40 1013.5
20260507181038 62 230 1.0 3.0 0.00 0.04 0.00 35 1013.5
20260507180538 62 339 1.0 5.0 0.00 0.04 0.00 33 1013.7
20260507180039 61 317 2.0 5.0 0.00 0.06 0.00 33 1013.8
20260507175538 61 347 1.0 8.0 0.00 0.06 0.00 33 1014.0
20260507175037 61 317 3.0 8.0 0.00 0.06 0.00 31 1014.1
20260507174544 61 321 2.0 7.0 0.00 0.06 0.00 35 1014.0
20260507174038 61 330 1.0 5.0 0.00 0.06 0.00 33 1014.0
20260507173539 61 321 2.0 6.0 0.00 0.06 0.00 33 1014.3
20260507173037 61 309 2.0 6.0 0.00 0.06 0.00 34 1014.3
20260507172536 61 296 0.0 5.0 0.00 0.06 0.00 36 1014.3
20260507172034 61 315 1.0 4.0 0.00 0.06 0.00 38 1014.5
20260507171536 61 305 1.0 4.0 0.00 0.06 0.00 38 1014.6
20260507171032 60 311 1.0 4.0 0.00 0.06 0.00 35 1014.6
20260507170533 60 324 1.0 4.0 0.00 0.06 0.00 33 1014.6
20260507170041 60 360 1.0 4.0 0.00 0.07 0.00 36 1014.7
20260507165532 60 324 1.0 4.0 0.00 0.07 0.00 36 1014.7
20260507165030 60 311 1.0 4.0 0.00 0.07 0.00 36 1014.8
20260507164532 60 341 1.0 3.0 0.00 0.07 0.00 38 1014.7
20260507164029 60 43 1.0 5.0 0.00 0.07 0.00 35 1014.9
20260507163529 60 308 2.0 5.0 0.00 0.07 0.00 34 1014.9
20260507163026 60 319 2.0 6.0 0.00 0.07 0.00 34 1014.9
20260507162524 60 23 1.0 6.0 0.00 0.07 0.00 38 1014.8
20260507162024 59 320 1.0 5.0 0.00 0.07 0.00 34 1014.9
20260507161523 59 320 2.0 5.0 0.00 0.07 0.00 37 1015.0
20260507161022 59 321 1.0 4.0 0.00 0.07 0.00 35 1014.9
20260507160524 59 319 1.0 3.0 0.00 0.07 0.00 36 1014.9
20260507160020 59 314 1.0 4.0 0.00 0.08 0.00 38 1014.9
20260507155518 59 311 1.0 4.0 0.00 0.08 0.00 37 1014.9
20260507155017 59 36 1.0 4.0 0.00 0.08 0.00 38 1014.9
20260507154516 58 329 1.0 5.0 0.00 0.08 0.00 37 1014.9
20260507154015 58 313 2.0 7.0 0.00 0.08 0.00 38 1015.0
20260507153514 58 329 1.0 7.0 0.00 0.08 0.00 38 1014.9
20260507153018 58 333 0.0 4.0 0.00 0.08 0.00 39 1014.9
20260507152513 57 333 1.0 5.0 0.00 0.08 0.00 40 1014.8
20260507152015 57 329 1.0 3.0 0.00 0.08 0.00 37 1014.8
20260507151509 57 315 1.0 3.0 0.00 0.08 0.00 41 1014.8
20260507151010 56 326 1.0 4.0 0.00 0.08 0.00 39 1014.8
20260507150506 56 355 0.0 0.0 0.00 0.08 0.00 43 1014.8
20260507150007 55 318 0.0 2.0 0.00 0.09 0.00 39 1014.8
20260507145505 55 321 0.0 2.0 0.00 0.09 0.00 40 1014.8
20260507145002 55 305 0.0 4.0 0.00 0.09 0.00 43 1014.7
20260507144504 54 307 2.0 4.0 0.00 0.09 0.00 39 1014.7
20260507144100 54 333 1.0 5.0 0.00 0.09 0.00 43 1014.8
20260507143559 54 304 2.0 5.0 0.00 0.09 0.00 42 1014.8
20260507143057 53 51 1.0 3.0 0.00 0.09 0.00 45 1014.9
20260507142656 53 63 1.0 3.0 0.00 0.09 0.00 44 1014.9
20260507142053 52 331 1.0 3.0 0.00 0.09 0.00 46 1014.9
20260507141554 52 334 0.0 3.0 0.00 0.09 0.00 50 1014.9
20260507141051 51 333 0.0 3.0 0.00 0.09 0.00 48 1014.9
20260507140551 50 313 2.0 4.0 0.00 0.09 0.00 48 1015.0
20260507140051 50 313 1.0 4.0 0.00 0.10 0.00 50 1015.0
20260507135546 49 315 1.0 3.0 0.00 0.10 0.00 54 1014.9
20260507135045 49 315 1.0 3.0 0.00 0.10 0.00 55 1014.9
20260507134547 48 323 0.0 3.0 0.00 0.10 0.00 56 1014.8
20260507134042 47 331 0.0 4.0 0.00 0.10 0.00 59 1014.9
20260507133541 47 304 1.0 4.0 0.00 0.10 0.00 62 1015.0
20260507133041 46 336 1.0 3.0 0.00 0.10 0.00 64 1015.1
20260507132537 45 350 0.0 3.0 0.00 0.10 0.00 65 1014.9
20260507132041 44 350 0.0 4.0 0.00 0.10 0.00 69 1014.9
20260507131551 44 315 1.0 5.0 0.00 0.10 0.00 72 1015.0
20260507131036 43 318 1.0 2.0 0.00 0.10 0.00 74 1014.9
20260507130537 43 317 0.0 2.0 0.00 0.10 0.00 76 1015.0
20260507130034 43 317 0.0 1.0 0.00 0.12 0.00 77 1015.0
20260507125534 42 317 0.0 1.0 0.00 0.12 0.00 77 1014.9
20260507125032 42 317 0.0 2.0 0.00 0.12 0.00 77 1015.0
20260507124534 42 313 0.0 2.0 0.00 0.12 0.00 77 1015.0
20260507124030 42 313 0.0 0.0 0.00 0.12 0.00 77 1015.0
20260507123530 42 313 0.0 0.0 0.00 0.12 0.00 77 1015.0
20260507123030 42 313 0.0 0.0 0.00 0.12 0.00 77 1015.0
20260507122531 41 313 0.0 0.0 0.00 0.12 0.00 77 1015.1
20260507122027 41 312 0.0 0.0 0.00 0.12 0.00 76 1015.1
20260507121526 41 312 0.0 0.0 0.00 0.12 0.00 76 1015.0
20260507121026 40 312 0.0 0.0 0.00 0.12 0.00 75 1015.0
20260507120524 40 312 0.0 0.0 0.00 0.12 0.00 75 1014.8
20260507120036 40 312 0.0 0.0 0.00 0.13 0.00 75 1015.0
20260507115522 39 312 0.0 0.0 0.00 0.13 0.00 74 1014.9
20260507115022 39 312 0.0 0.0 0.00 0.13 0.00 74 1014.9
20260507114521 39 312 0.0 0.0 0.00 0.13 0.00 74 1014.9
20260507114018 39 312 0.0 0.0 0.00 0.13 0.00 74 1014.8
20260507113517 39 312 0.0 0.0 0.00 0.13 0.00 74 1014.8
20260507113016 39 312 0.0 0.0 0.00 0.13 0.00 74 1014.9
20260507112515 39 312 0.0 0.0 0.00 0.13 0.00 74 1014.9
20260507112015 39 312 0.0 0.0 0.00 0.13 0.00 74 1014.7
20260507111513 39 312 0.0 0.0 0.00 0.13 0.00 73 1014.9
20260507111012 39 312 0.0 0.0 0.00 0.13 0.00 73 1014.7
20260507110512 39 312 0.0 0.0 0.00 0.13 0.00 73 1014.7
20260507110012 39 312 0.0 0.0 0.00 0.15 0.00 73 1014.5
20260507105510 39 312 0.0 0.0 0.00 0.15 0.00 73 1014.5
20260507105010 39 312 0.0 0.0 0.00 0.15 0.00 73 1014.5
20260507104512 39 312 0.0 0.0 0.00 0.15 0.00 73 1014.4
20260507104010 39 312 0.0 0.0 0.00 0.15 0.00 73 1014.4
20260507103513 39 312 0.0 0.0 0.00 0.15 0.00 73 1014.4
20260507103008 39 312 0.0 0.0 0.00 0.15 0.00 73 1014.4
20260507102512 39 312 0.0 0.0 0.00 0.15 0.00 73 1014.4
20260507102007 39 312 0.0 0.0 0.00 0.15 0.00 73 1014.4
20260507101507 40 312 0.0 0.0 0.00 0.15 0.00 73 1014.3
20260507101006 40 312 0.0 0.0 0.00 0.15 0.00 73 1014.3
20260507100505 40 312 0.0 0.0 0.00 0.15 0.00 73 1014.4
20260507100008 40 312 0.0 0.0 0.00 0.17 0.00 73 1014.3
20260507095508 40 312 0.0 0.0 0.00 0.17 0.00 73 1014.4
20260507095005 40 312 0.0 0.0 0.00 0.17 0.00 73 1014.4
20260507094504 40 312 0.0 0.0 0.00 0.17 0.00 73 1014.4
20260507094003 40 312 0.0 0.0 0.00 0.17 0.00 73 1014.4
20260507093502 40 312 0.0 0.0 0.00 0.17 0.00 73 1014.2
20260507093003 40 312 0.0 0.0 0.00 0.17 0.00 73 1014.3
20260507092501 40 312 0.0 0.0 0.00 0.17 0.00 73 1014.2
20260507092100 40 312 0.0 0.0 0.00 0.17 0.00 73 1014.2
20260507091601 41 312 0.0 0.0 0.00 0.17 0.00 73 1014.1
20260507091100 41 312 0.0 0.0 0.00 0.17 0.00 73 1014.0
20260507090559 41 312 0.0 0.0 0.00 0.17 0.00 73 1014.1
20260507090059 41 312 0.0 0.0 0.00 0.18 0.00 73 1014.0
20260507085558 41 312 0.0 0.0 0.00 0.18 0.00 72 1013.9
20260507085058 41 312 0.0 0.0 0.00 0.18 0.00 72 1013.9
20260507084558 41 312 0.0 0.0 0.00 0.18 0.00 72 1013.9
20260507084101 41 312 0.0 0.0 0.00 0.18 0.00 72 1013.9
20260507083558 41 312 0.0 0.0 0.00 0.18 0.00 72 1013.8
20260507083057 41 312 0.0 0.0 0.00 0.18 0.00 72 1013.7
20260507082557 41 312 0.0 0.0 0.00 0.18 0.00 72 1013.8
20260507082058 41 312 0.0 0.0 0.00 0.18 0.00 72 1013.7
20260507081602 41 312 0.0 0.0 0.00 0.18 0.00 72 1013.8
20260507081055 41 312 0.0 0.0 0.00 0.18 0.00 72 1013.8
20260507080555 41 312 0.0 0.0 0.00 0.18 0.00 72 1013.8
20260507080056 42 312 0.0 0.0 0.00 0.20 0.00 72 1013.8
20260507075554 42 312 0.0 0.0 0.00 0.20 0.00 72 1013.7
20260507075053 42 312 0.0 0.0 0.00 0.20 0.00 72 1013.9
20260507074607 42 312 0.0 0.0 0.00 0.20 0.00 72 1013.7
20260507074052 42 312 0.0 0.0 0.00 0.20 0.00 72 1013.7
20260507073552 42 312 0.0 0.0 0.00 0.20 0.00 72 1013.8
20260507073052 42 312 0.0 0.0 0.00 0.20 0.00 72 1013.8
20260507072552 42 312 0.0 0.0 0.00 0.20 0.00 72 1013.8
20260507072052 42 312 0.0 0.0 0.00 0.20 0.00 72 1013.9
20260507071550 42 312 0.0 0.0 0.00 0.20 0.00 72 1013.7
20260507071051 42 312 0.0 0.0 0.00 0.20 0.00 72 1013.7
20260507070550 42 312 0.0 0.0 0.00 0.20 0.00 72 1013.7
20260507070050 42 312 0.0 0.0 0.00 0.22 0.00 72 1013.7
20260507065549 42 312 0.0 0.0 0.00 0.22 0.00 72 1013.7
20260507065052 42 312 0.0 0.0 0.00 0.22 0.00 72 1013.8
20260507064548 42 312 0.0 0.0 0.00 0.22 0.00 72 1013.8
20260507064048 42 312 0.0 0.0 0.00 0.22 0.00 72 1013.9
20260507063546 43 312 0.0 0.0 0.00 0.22 0.00 71 1014.1
20260507063047 43 312 0.0 0.0 0.00 0.22 0.00 71 1014.0
20260507062547 43 312 0.0 0.0 0.00 0.22 0.00 71 1014.0
20260507062048 43 312 0.0 0.0 0.00 0.22 0.00 71 1013.9
20260507061545 43 312 0.0 0.0 0.00 0.22 0.00 72 1013.9
20260507061044 43 312 0.0 0.0 0.00 0.22 0.00 71 1013.7
20260507060543 43 312 0.0 0.0 0.00 0.22 0.00 71 1013.8
20260507060048 43 312 0.0 0.0 0.00 0.25 0.00 71 1013.9
20260507055544 43 312 0.0 0.0 0.00 0.25 0.00 71 1013.8
20260507055045 43 312 0.0 0.0 0.00 0.25 0.00 71 1013.8
20260507054602 43 312 0.0 0.0 0.00 0.25 0.00 71 1013.9
20260507054042 43 312 0.0 0.0 0.00 0.25 0.00 71 1013.9
20260507053545 43 312 0.0 0.0 0.00 0.25 0.00 71 1014.0
20260507053048 44 312 0.0 0.0 0.00 0.25 0.00 71 1014.0
20260507052540 44 312 0.0 0.0 0.00 0.25 0.00 71 1013.9
20260507052041 44 312 0.0 0.0 0.00 0.25 0.00 71 1013.8
20260507051540 44 312 0.0 0.0 0.00 0.25 0.00 71 1013.7
20260507051038 44 312 0.0 0.0 0.00 0.25 0.00 71 1013.8
20260507050538 44 312 0.0 0.0 0.00 0.25 0.00 70 1013.9
20260507050037 44 312 0.0 0.0 0.00 0.27 0.00 70 1014.0
20260507045538 44 312 0.0 0.0 0.00 0.27 0.00 70 1013.9
20260507045035 44 312 0.0 0.0 0.00 0.27 0.00 70 1014.0
20260507044539 44 312 0.0 0.0 0.00 0.27 0.00 70 1014.0
20260507044038 44 312 0.0 0.0 0.00 0.27 0.00 70 1014.1
20260507043535 45 312 0.0 0.0 0.00 0.27 0.00 70 1014.0
20260507043034 45 312 0.0 0.0 0.00 0.27 0.00 70 1013.9
20260507042534 45 312 0.0 0.0 0.00 0.27 0.00 70 1013.9
20260507042032 45 312 0.0 0.0 0.00 0.27 0.00 70 1013.8
20260507041533 45 312 0.0 0.0 0.00 0.27 0.00 70 1013.9
20260507041032 45 312 0.0 0.0 0.00 0.27 0.00 70 1013.8
20260507040532 45 312 0.0 0.0 0.00 0.27 0.00 69 1013.8
20260507040030 46 312 0.0 0.0 0.00 0.28 0.27 69 1013.7
20260507035533 46 312 0.0 0.0 0.00 0.28 0.27 69 1013.7
20260507035030 46 312 0.0 0.0 0.00 0.28 0.27 69 1013.9
20260507034529 46 312 0.0 0.0 0.00 0.28 0.27 69 1013.8
20260507034030 46 312 0.0 0.0 0.00 0.28 0.27 69 1013.8
20260507033529 46 312 0.0 0.0 0.00 0.28 0.27 68 1014.0
20260507033029 46 312 0.0 0.0 0.00 0.28 0.27 68 1013.9
20260507032529 47 312 0.0 0.0 0.00 0.28 0.27 68 1013.9
20260507032028 47 312 0.0 0.0 0.00 0.28 0.27 68 1013.8
20260507031528 47 312 0.0 0.0 0.00 0.28 0.27 68 1013.8
20260507031032 47 312 0.0 0.0 0.00 0.28 0.27 68 1013.8
20260507030531 47 312 0.0 0.0 0.00 0.28 0.27 67 1013.9
20260507030027 48 312 0.0 0.0 0.00 0.32 0.27 67 1013.9
20260507025527 48 312 0.0 0.0 0.00 0.32 0.27 67 1014.0
20260507025028 48 312 0.0 0.0 0.00 0.32 0.27 66 1013.9
20260507024527 48 312 0.0 0.0 0.00 0.32 0.27 66 1013.9
20260507024026 49 312 0.0 0.0 0.00 0.32 0.27 66 1013.9
20260507023526 49 312 0.0 0.0 0.00 0.32 0.27 65 1013.8
20260507023028 49 312 0.0 0.0 0.00 0.32 0.27 65 1013.7
20260507022530 49 312 0.0 0.0 0.00 0.32 0.27 64 1013.7
20260507022027 50 312 0.0 0.0 0.00 0.32 0.27 64 1013.7
20260507021524 50 312 0.0 0.0 0.00 0.32 0.27 63 1013.7
20260507021024 50 312 0.0 0.0 0.00 0.32 0.27 63 1013.6
20260507020524 51 312 0.0 0.0 0.01 0.32 0.27 62 1013.6
20260507020025 51 312 0.0 0.0 0.01 0.40 0.27 62 1013.6
20260507015525 51 312 0.0 0.0 0.01 0.40 0.27 61 1013.6
20260507015023 51 312 0.0 0.0 0.01 0.40 0.27 61 1013.5
20260507014531 52 312 0.0 0.0 0.01 0.40 0.27 61 1013.6
20260507014022 52 312 0.0 0.0 0.01 0.40 0.27 61 1013.5
20260507013521 52 312 0.0 0.0 0.01 0.40 0.27 60 1013.4
20260507013021 52 312 0.0 0.0 0.01 0.40 0.27 59 1013.3
20260507012521 53 312 0.0 0.0 0.01 0.40 0.27 59 1013.2
20260507012022 53 312 0.0 0.0 0.01 0.40 0.27 59 1013.2
20260507011520 53 312 0.0 0.0 0.01 0.40 0.27 58 1013.0
20260507011019 53 312 0.0 0.0 0.01 0.40 0.27 58 1013.0
20260507010519 54 312 0.0 0.0 0.00 0.39 0.26 57 1013.0
20260507010019 54 312 0.0 0.0 0.00 0.40 0.26 57 1013.0
20260507005518 54 312 0.0 0.0 0.00 0.40 0.26 56 1013.0
20260507005020 54 312 0.0 0.0 0.00 0.40 0.26 54 1012.9
20260507004520 54 312 0.0 0.0 0.00 0.40 0.26 54 1012.9
20260507004023 54 312 0.0 0.0 0.00 0.40 0.26 54 1012.9
20260507003516 54 312 0.0 0.0 0.00 0.40 0.26 54 1012.9
20260507003019 55 312 0.0 0.0 0.00 0.40 0.26 55 1012.8
20260507002516 55 312 0.0 0.0 0.00 0.40 0.26 55 1012.9
20260507002015 55 314 0.0 0.0 0.00 0.40 0.26 55 1012.7
20260507001521 55 314 0.0 3.0 0.00 0.40 0.26 54 1012.8
20260507001017 55 314 0.0 3.0 0.00 0.40 0.26 52 1012.6
20260507000514 55 320 0.0 2.0 0.00 0.40 0.26 54 1012.7
20260507000016 56 320 0.0 2.0 0.00 0.42 0.26 55 1012.6
20260506235514 56 320 0.0 3.0 0.00 0.42 0.26 54 1012.5
20260506235015 56 320 1.0 3.0 0.00 0.42 0.26 55 1012.3
20260506234515 56 323 1.0 2.0 0.00 0.42 0.26 55 1012.3
20260506234013 56 319 0.0 2.0 0.00 0.42 0.26 54 1012.4
20260506233513 56 319 0.0 2.0 0.00 0.42 0.26 54 1012.4
20260506233012 56 319 0.0 2.0 0.00 0.42 0.26 52 1012.1
20260506232513 57 319 0.0 2.0 0.00 0.42 0.26 52 1012.2
20260506232012 57 319 0.0 0.0 0.00 0.42 0.26 53 1012.1
20260506231512 57 319 0.0 3.0 0.00 0.42 0.26 53 1011.9
20260506231012 57 319 1.0 3.0 0.00 0.42 0.26 52 1011.7
20260506230511 57 326 0.0 2.0 0.00 0.42 0.26 51 1011.8
20260506230012 57 332 0.0 2.0 0.01 0.42 0.26 52 1011.9
20260506225515 57 332 0.0 2.0 0.01 0.42 0.26 50 1012.0
20260506225012 57 333 1.0 2.0 0.01 0.42 0.26 51 1012.2
20260506224511 57 334 0.0 2.0 0.01 0.42 0.26 50 1011.9
20260506224015 57 336 1.0 3.0 0.01 0.42 0.26 50 1012.1
20260506223511 57 336 0.0 3.0 0.01 0.42 0.26 50 1012.1
20260506223011 58 337 1.0 3.0 0.01 0.42 0.26 49 1012.3
20260506222511 58 5 0.0 3.0 0.01 0.42 0.26 49 1012.1
20260506222010 58 5 0.0 3.0 0.01 0.42 0.26 50 1012.3
20260506221510 58 28 0.0 0.0 0.01 0.42 0.26 50 1012.2
20260506221012 58 42 0.0 0.0 0.01 0.42 0.26 49 1012.5
20260506220509 58 44 0.0 0.0 0.01 0.42 0.26 49 1012.6
20260506220018 58 44 0.0 2.0 0.00 0.47 0.25 48 1012.5
20260506215511 58 44 0.0 2.0 0.00 0.47 0.25 49 1012.3